owner,sensor,date,latitude,longitude,air_pressure(mBar),qcFlag 
LUMCON,ioos:station:LUMCON:103:1,2008-10-01T00:00:00Z,30.1889,-90.1683,1012.6,11111222 
LUMCON,ioos:station:LUMCON:103:1,2008-10-01T01:00:00Z,30.1889,-90.1683,1013.0,11111222 
LUMCON,ioos:station:LUMCON:103:1,2008-10-01T02:00:00Z,30.1889,-90.1683,1013.4,11111222 
LUMCON,ioos:station:LUMCON:103:1,2008-10-01T03:00:00Z,30.1889,-90.1683,1013.9,11111222 
LUMCON,ioos:station:LUMCON:103:1,2008-10-01T09:00:00Z,30.1889,-90.1683,1013.5,11111222 
LUMCON,ioos:station:LUMCON:103:1,2008-10-01T11:00:00Z,30.1889,-90.1683,1013.9,11111222 
LUMCON,ioos:station:LUMCON:103:1,2008-10-01T12:00:00Z,30.1889,-90.1683,1014.3,11111222 
LUMCON,ioos:station:LUMCON:103:1,2008-10-01T13:00:00Z,30.1889,-90.1683,1014.9,11111222 
LUMCON,ioos:station:LUMCON:103:1,2008-10-01T19:00:00Z,30.1889,-90.1683,1013.2,11111222 
LUMCON,ioos:station:LUMCON:103:1,2008-10-01T22:00:00Z,30.1889,-90.1683,1012.1,11111222 
LUMCON,ioos:station:LUMCON:103:1,2008-10-01T23:00:00Z,30.1889,-90.1683,1012.4,11111222 
LUMCON,ioos:station:LUMCON:103:1,2008-10-02T00:00:00Z,30.1889,-90.1683,1012.7,11111222 
LUMCON,ioos:station:LUMCON:103:1,2008-10-02T03:00:00Z,30.1889,-90.1683,1014.5,11111222 
LUMCON,ioos:station:LUMCON:103:1,2008-10-02T05:00:00Z,30.1889,-90.1683,1014.4,11111222 
LUMCON,ioos:station:LUMCON:103:1,2008-10-02T09:00:00Z,30.1889,-90.1683,1013.9,11111222 
LUMCON,ioos:station:LUMCON:103:1,2008-10-02T14:00:00Z,30.1889,-90.1683,1015.8,11111222 
LUMCON,ioos:station:LUMCON:103:1,2008-10-03T17:00:00Z,30.1889,-90.1683,1017.5,11111222 
LUMCON,ioos:station:LUMCON:103:1,2008-10-03T20:00:00Z,30.1889,-90.1683,1015.7,11111222 
LUMCON,ioos:station:LUMCON:103:1,2008-10-03T21:00:00Z,30.1889,-90.1683,1015.4,11111222 
LUMCON,ioos:station:LUMCON:103:1,2008-10-03T23:00:00Z,30.1889,-90.1683,1015.5,11111222 
LUMCON,ioos:station:LUMCON:103:1,2008-10-04T00:00:00Z,30.1889,-90.1683,1016.1,11111222 
LUMCON,ioos:station:LUMCON:103:1,2008-10-04T01:00:00Z,30.1889,-90.1683,1016.2,11111222 
LUMCON,ioos:station:LUMCON:103:1,2008-10-04T02:00:00Z,30.1889,-90.1683,1016.8,11111222 
LUMCON,ioos:station:LUMCON:103:1,2008-10-04T03:00:00Z,30.1889,-90.1683,1017.4,11111222 
LUMCON,ioos:station:LUMCON:103:1,2008-10-04T04:00:00Z,30.1889,-90.1683,1017.8,11111222 
LUMCON,ioos:station:LUMCON:103:1,2008-10-04T05:00:00Z,30.1889,-90.1683,1017.7,11111222 
LUMCON,ioos:station:LUMCON:103:1,2008-10-04T06:00:00Z,30.1889,-90.1683,1017.7,11111222 
LUMCON,ioos:station:LUMCON:103:1,2008-10-04T07:00:00Z,30.1889,-90.1683,1017.9,11111222 
LUMCON,ioos:station:LUMCON:103:1,2008-10-04T08:00:00Z,30.1889,-90.1683,1018.0,11111222 
LUMCON,ioos:station:LUMCON:103:1,2008-10-04T09:00:00Z,30.1889,-90.1683,1018.0,11111222 
LUMCON,ioos:station:LUMCON:103:1,2008-10-04T10:00:00Z,30.1889,-90.1683,1018.1,11111222 
LUMCON,ioos:station:LUMCON:103:1,2008-10-04T15:00:00Z,30.1889,-90.1683,1020.2,11111222 
LUMCON,ioos:station:LUMCON:103:1,2008-10-04T16:00:00Z,30.1889,-90.1683,1020.3,11111222 
LUMCON,ioos:station:LUMCON:103:1,2008-10-04T17:00:00Z,30.1889,-90.1683,1020.1,11111222 
LUMCON,ioos:station:LUMCON:103:1,2008-10-04T18:00:00Z,30.1889,-90.1683,1019.8,11111222 
LUMCON,ioos:station:LUMCON:103:1,2008-10-04T19:00:00Z,30.1889,-90.1683,1019.1,11111222 
LUMCON,ioos:station:LUMCON:103:1,2008-10-04T23:00:00Z,30.1889,-90.1683,1017.9,11111222 
LUMCON,ioos:station:LUMCON:103:1,2008-10-05T00:00:00Z,30.1889,-90.1683,1017.8,11111222 
LUMCON,ioos:station:LUMCON:103:1,2008-10-05T01:00:00Z,30.1889,-90.1683,1017.9,11111222 
LUMCON,ioos:station:LUMCON:103:1,2008-10-05T02:00:00Z,30.1889,-90.1683,1018.3,11111222 
LUMCON,ioos:station:LUMCON:103:1,2008-10-05T03:00:00Z,30.1889,-90.1683,1018.6,11111222 
LUMCON,ioos:station:LUMCON:103:1,2008-10-05T04:00:00Z,30.1889,-90.1683,1018.8,11111222 
LUMCON,ioos:station:LUMCON:103:1,2008-10-05T05:00:00Z,30.1889,-90.1683,1018.8,11111222 
LUMCON,ioos:station:LUMCON:103:1,2008-10-05T06:00:00Z,30.1889,-90.1683,1018.6,11111222 
LUMCON,ioos:station:LUMCON:103:1,2008-10-05T07:00:00Z,30.1889,-90.1683,1018.6,11111222 
LUMCON,ioos:station:LUMCON:103:1,2008-10-05T12:00:00Z,30.1889,-90.1683,1018.4,11111222 
LUMCON,ioos:station:LUMCON:103:1,2008-10-05T14:00:00Z,30.1889,-90.1683,1019.2,11111222 
LUMCON,ioos:station:LUMCON:103:1,2008-10-05T16:00:00Z,30.1889,-90.1683,1019.0,11111222 
LUMCON,ioos:station:LUMCON:103:1,2008-10-05T18:00:00Z,30.1889,-90.1683,1017.9,11111222 
LUMCON,ioos:station:LUMCON:103:1,2008-10-05T19:00:00Z,30.1889,-90.1683,1017.1,11111222 
LUMCON,ioos:station:LUMCON:103:1,2008-10-05T20:00:00Z,30.1889,-90.1683,1016.4,11111222 
LUMCON,ioos:station:LUMCON:103:1,2008-10-05T21:00:00Z,30.1889,-90.1683,1016.1,11111222 
LUMCON,ioos:station:LUMCON:103:1,2008-10-05T22:00:00Z,30.1889,-90.1683,1015.9,11111222 
LUMCON,ioos:station:LUMCON:103:1,2008-10-05T23:00:00Z,30.1889,-90.1683,1016.1,11111222 
LUMCON,ioos:station:LUMCON:103:1,2008-10-06T00:00:00Z,30.1889,-90.1683,1016.1,11111222 
LUMCON,ioos:station:LUMCON:103:1,2008-10-06T03:00:00Z,30.1889,-90.1683,1016.7,11111222 
LUMCON,ioos:station:LUMCON:103:1,2008-10-06T05:00:00Z,30.1889,-90.1683,1016.0,11111222 
LUMCON,ioos:station:LUMCON:103:1,2008-10-06T06:00:00Z,30.1889,-90.1683,1016.1,11111222 
LUMCON,ioos:station:LUMCON:103:1,2008-10-06T17:00:00Z,30.1889,-90.1683,1016.3,11111222 
LUMCON,ioos:station:LUMCON:103:1,2008-10-07T18:00:00Z,30.1889,-90.1683,1015.4,11111222 
LUMCON,ioos:station:LUMCON:103:1,2008-10-07T20:00:00Z,30.1889,-90.1683,1014.0,11111222 
LUMCON,ioos:station:LUMCON:103:1,2008-10-08T03:00:00Z,30.1889,-90.1683,1014.6,11111222 
LUMCON,ioos:station:LUMCON:103:1,2008-10-08T07:00:00Z,30.1889,-90.1683,1013.3,11111222 
LUMCON,ioos:station:LUMCON:103:1,2008-10-08T08:00:00Z,30.1889,-90.1683,1013.1,11111222 
LUMCON,ioos:station:LUMCON:103:1,2008-10-08T15:00:00Z,30.1889,-90.1683,1015.1,11111222 
LUMCON,ioos:station:LUMCON:103:1,2008-10-08T16:00:00Z,30.1889,-90.1683,1015.1,11111222 
LUMCON,ioos:station:LUMCON:103:1,2008-10-08T17:00:00Z,30.1889,-90.1683,1014.9,11111222 
LUMCON,ioos:station:LUMCON:103:1,2008-10-08T18:00:00Z,30.1889,-90.1683,1014.1,11111222 
LUMCON,ioos:station:LUMCON:103:1,2008-10-08T20:00:00Z,30.1889,-90.1683,1012.7,11111222 
LUMCON,ioos:station:LUMCON:103:1,2008-10-08T21:00:00Z,30.1889,-90.1683,1012.3,11111222 
LUMCON,ioos:station:LUMCON:103:1,2008-10-08T22:00:00Z,30.1889,-90.1683,1012.3,11111222 
LUMCON,ioos:station:LUMCON:103:1,2008-10-08T23:00:00Z,30.1889,-90.1683,1012.6,11111222 
LUMCON,ioos:station:LUMCON:103:1,2008-10-09T00:00:00Z,30.1889,-90.1683,1012.9,11111222 
LUMCON,ioos:station:LUMCON:103:1,2008-10-09T01:00:00Z,30.1889,-90.1683,1013.6,11111222 
LUMCON,ioos:station:LUMCON:103:1,2008-10-09T03:00:00Z,30.1889,-90.1683,1014.5,11111222 
LUMCON,ioos:station:LUMCON:103:1,2008-10-09T04:00:00Z,30.1889,-90.1683,1014.4,11111222 
LUMCON,ioos:station:LUMCON:103:1,2008-10-09T05:00:00Z,30.1889,-90.1683,1014.2,11111222 
LUMCON,ioos:station:LUMCON:103:1,2008-10-09T06:00:00Z,30.1889,-90.1683,1013.8,11111222 
LUMCON,ioos:station:LUMCON:103:1,2008-10-09T07:00:00Z,30.1889,-90.1683,1014.0,11111222 
LUMCON,ioos:station:LUMCON:103:1,2008-10-09T14:00:00Z,30.1889,-90.1683,1015.7,11111222 
LUMCON,ioos:station:LUMCON:103:1,2008-10-09T15:00:00Z,30.1889,-90.1683,1016.0,11111222 
LUMCON,ioos:station:LUMCON:103:1,2008-10-09T16:00:00Z,30.1889,-90.1683,1016.0,11111222 
LUMCON,ioos:station:LUMCON:103:1,2008-10-09T17:00:00Z,30.1889,-90.1683,1015.3,11111222 
LUMCON,ioos:station:LUMCON:103:1,2008-10-09T18:00:00Z,30.1889,-90.1683,1014.7,11111222 
LUMCON,ioos:station:LUMCON:103:1,2008-10-09T19:00:00Z,30.1889,-90.1683,1014.0,11111222 
LUMCON,ioos:station:LUMCON:103:1,2008-10-09T22:00:00Z,30.1889,-90.1683,1013.1,11111222 
LUMCON,ioos:station:LUMCON:103:1,2008-10-09T23:00:00Z,30.1889,-90.1683,1013.1,11111222 
LUMCON,ioos:station:LUMCON:103:1,2008-10-10T01:00:00Z,30.1889,-90.1683,1013.6,11111222 
LUMCON,ioos:station:LUMCON:103:1,2008-10-10T02:00:00Z,30.1889,-90.1683,1014.1,11111222 
LUMCON,ioos:station:LUMCON:103:1,2008-10-10T03:00:00Z,30.1889,-90.1683,1014.2,11111222 
LUMCON,ioos:station:LUMCON:103:1,2008-10-10T05:00:00Z,30.1889,-90.1683,1014.2,11111222 
LUMCON,ioos:station:LUMCON:103:1,2008-10-10T19:00:00Z,30.1889,-90.1683,1014.8,11111222 
LUMCON,ioos:station:LUMCON:103:1,2008-10-10T20:00:00Z,30.1889,-90.1683,1014.5,11111222 
LUMCON,ioos:station:LUMCON:103:1,2008-10-10T22:00:00Z,30.1889,-90.1683,1014.5,11111222 
LUMCON,ioos:station:LUMCON:103:1,2008-10-10T23:00:00Z,30.1889,-90.1683,1014.4,11111222 
LUMCON,ioos:station:LUMCON:103:1,2008-10-11T00:00:00Z,30.1889,-90.1683,1014.7,11111222 
LUMCON,ioos:station:LUMCON:103:1,2008-10-11T01:00:00Z,30.1889,-90.1683,1015.0,11111222 
LUMCON,ioos:station:LUMCON:103:1,2008-10-11T03:00:00Z,30.1889,-90.1683,1015.8,11111222 
LUMCON,ioos:station:LUMCON:103:1,2008-10-11T04:00:00Z,30.1889,-90.1683,1016.1,11111222 
LUMCON,ioos:station:LUMCON:103:1,2008-10-11T05:00:00Z,30.1889,-90.1683,1016.1,11111222 
LUMCON,ioos:station:LUMCON:103:1,2008-10-11T06:00:00Z,30.1889,-90.1683,1016.0,11111222 
LUMCON,ioos:station:LUMCON:103:1,2008-10-11T07:00:00Z,30.1889,-90.1683,1015.7,11111222 
LUMCON,ioos:station:LUMCON:103:1,2008-10-11T10:00:00Z,30.1889,-90.1683,1015.6,11111222 
LUMCON,ioos:station:LUMCON:103:1,2008-10-11T11:00:00Z,30.1889,-90.1683,1016.2,11111222 
LUMCON,ioos:station:LUMCON:103:1,2008-10-11T12:00:00Z,30.1889,-90.1683,1016.6,11111222 
LUMCON,ioos:station:LUMCON:103:1,2008-10-11T13:00:00Z,30.1889,-90.1683,1017.1,11111222 
LUMCON,ioos:station:LUMCON:103:1,2008-10-11T14:00:00Z,30.1889,-90.1683,1018.0,11111222 
LUMCON,ioos:station:LUMCON:103:1,2008-10-11T17:00:00Z,30.1889,-90.1683,1018.4,11111222 
LUMCON,ioos:station:LUMCON:103:1,2008-10-11T18:00:00Z,30.1889,-90.1683,1017.9,11111222 
LUMCON,ioos:station:LUMCON:103:1,2008-10-11T19:00:00Z,30.1889,-90.1683,1017.2,11111222 
LUMCON,ioos:station:LUMCON:103:1,2008-10-11T20:00:00Z,30.1889,-90.1683,1016.7,11111222 
LUMCON,ioos:station:LUMCON:103:1,2008-10-11T22:00:00Z,30.1889,-90.1683,1016.2,11111222 
LUMCON,ioos:station:LUMCON:103:1,2008-10-11T23:00:00Z,30.1889,-90.1683,1016.3,11111222 
LUMCON,ioos:station:LUMCON:103:1,2008-10-12T00:00:00Z,30.1889,-90.1683,1016.2,11111222 
LUMCON,ioos:station:LUMCON:103:1,2008-10-12T01:00:00Z,30.1889,-90.1683,1016.6,11111222 
LUMCON,ioos:station:LUMCON:103:1,2008-10-12T02:00:00Z,30.1889,-90.1683,1017.0,11111222 
LUMCON,ioos:station:LUMCON:103:1,2008-10-12T03:00:00Z,30.1889,-90.1683,1016.9,11111222 
LUMCON,ioos:station:LUMCON:103:1,2008-10-12T04:00:00Z,30.1889,-90.1683,1017.3,11111222 
LUMCON,ioos:station:LUMCON:103:1,2008-10-12T05:00:00Z,30.1889,-90.1683,1016.8,11111222 
LUMCON,ioos:station:LUMCON:103:1,2008-10-12T06:00:00Z,30.1889,-90.1683,1016.3,11111222 
LUMCON,ioos:station:LUMCON:103:1,2008-10-12T07:00:00Z,30.1889,-90.1683,1016.2,11111222 
LUMCON,ioos:station:LUMCON:103:1,2008-10-12T10:00:00Z,30.1889,-90.1683,1015.9,11111222 
LUMCON,ioos:station:LUMCON:103:1,2008-10-12T14:00:00Z,30.1889,-90.1683,1017.9,11111222 
LUMCON,ioos:station:LUMCON:103:1,2008-10-12T15:00:00Z,30.1889,-90.1683,1018.3,11111222 
LUMCON,ioos:station:LUMCON:103:1,2008-10-12T17:00:00Z,30.1889,-90.1683,1018.6,11111222 
LUMCON,ioos:station:LUMCON:103:1,2008-10-12T19:00:00Z,30.1889,-90.1683,1017.4,11111222 
LUMCON,ioos:station:LUMCON:103:1,2008-10-12T20:00:00Z,30.1889,-90.1683,1017.0,11111222 
LUMCON,ioos:station:LUMCON:103:1,2008-10-12T22:00:00Z,30.1889,-90.1683,1016.6,11111222 
LUMCON,ioos:station:LUMCON:103:1,2008-10-13T00:00:00Z,30.1889,-90.1683,1017.4,11111222 
LUMCON,ioos:station:LUMCON:103:1,2008-10-13T02:00:00Z,30.1889,-90.1683,1018.0,11111222 
LUMCON,ioos:station:LUMCON:103:1,2008-10-13T03:00:00Z,30.1889,-90.1683,1018.4,11111222 
LUMCON,ioos:station:LUMCON:103:1,2008-10-13T04:00:00Z,30.1889,-90.1683,1018.8,11111222 
LUMCON,ioos:station:LUMCON:103:1,2008-10-13T08:00:00Z,30.1889,-90.1683,1018.5,11111222 
LUMCON,ioos:station:LUMCON:103:1,2008-10-14T18:00:00Z,30.1889,-90.1683,1019.1,11111222 
LUMCON,ioos:station:LUMCON:103:1,2008-10-14T19:00:00Z,30.1889,-90.1683,1018.1,11111222 
LUMCON,ioos:station:LUMCON:103:1,2008-10-14T20:00:00Z,30.1889,-90.1683,1017.6,11111222 
LUMCON,ioos:station:LUMCON:103:1,2008-10-14T21:00:00Z,30.1889,-90.1683,1017.2,11111222 
LUMCON,ioos:station:LUMCON:103:1,2008-10-14T22:00:00Z,30.1889,-90.1683,1017.2,11111222 
LUMCON,ioos:station:LUMCON:103:1,2008-10-15T00:00:00Z,30.1889,-90.1683,1017.6,11111222 
LUMCON,ioos:station:LUMCON:103:1,2008-10-15T01:00:00Z,30.1889,-90.1683,1017.9,11111222 
LUMCON,ioos:station:LUMCON:103:1,2008-10-15T02:00:00Z,30.1889,-90.1683,1018.5,11111222 
LUMCON,ioos:station:LUMCON:103:1,2008-10-15T03:00:00Z,30.1889,-90.1683,1018.7,11111222 
LUMCON,ioos:station:LUMCON:103:1,2008-10-15T05:00:00Z,30.1889,-90.1683,1018.4,11111222 
LUMCON,ioos:station:LUMCON:103:1,2008-10-15T06:00:00Z,30.1889,-90.1683,1018.4,11111222 
LUMCON,ioos:station:LUMCON:103:1,2008-10-15T10:00:00Z,30.1889,-90.1683,1017.5,11111222 
LUMCON,ioos:station:LUMCON:103:1,2008-10-15T11:00:00Z,30.1889,-90.1683,1017.5,11111222 
LUMCON,ioos:station:LUMCON:103:1,2008-10-15T12:00:00Z,30.1889,-90.1683,1018.2,11111222 
LUMCON,ioos:station:LUMCON:103:1,2008-10-15T13:00:00Z,30.1889,-90.1683,1018.7,11111222 
LUMCON,ioos:station:LUMCON:103:1,2008-10-15T16:00:00Z,30.1889,-90.1683,1020.2,11111222 
LUMCON,ioos:station:LUMCON:103:1,2008-10-15T18:00:00Z,30.1889,-90.1683,1019.3,11111222 
LUMCON,ioos:station:LUMCON:103:1,2008-10-15T19:00:00Z,30.1889,-90.1683,1018.6,11111222 
LUMCON,ioos:station:LUMCON:103:1,2008-10-15T20:00:00Z,30.1889,-90.1683,1018.2,11111222 
LUMCON,ioos:station:LUMCON:103:1,2008-10-15T21:00:00Z,30.1889,-90.1683,1017.8,11111222 
LUMCON,ioos:station:LUMCON:103:1,2008-10-15T22:00:00Z,30.1889,-90.1683,1017.4,11111222 
LUMCON,ioos:station:LUMCON:103:1,2008-10-16T00:00:00Z,30.1889,-90.1683,1017.8,11111222 
LUMCON,ioos:station:LUMCON:103:1,2008-10-16T01:00:00Z,30.1889,-90.1683,1018.4,11111222 
LUMCON,ioos:station:LUMCON:103:1,2008-10-16T03:00:00Z,30.1889,-90.1683,1019.1,11111222 
LUMCON,ioos:station:LUMCON:103:1,2008-10-16T05:00:00Z,30.1889,-90.1683,1019.1,11111222 
LUMCON,ioos:station:LUMCON:103:1,2008-10-16T08:00:00Z,30.1889,-90.1683,1018.6,11111222 
LUMCON,ioos:station:LUMCON:103:1,2008-10-16T10:00:00Z,30.1889,-90.1683,1018.3,11111222 
LUMCON,ioos:station:LUMCON:103:1,2008-10-16T11:00:00Z,30.1889,-90.1683,1018.4,11111222 
LUMCON,ioos:station:LUMCON:103:1,2008-10-16T13:00:00Z,30.1889,-90.1683,1019.3,11111222 
LUMCON,ioos:station:LUMCON:103:1,2008-10-16T14:00:00Z,30.1889,-90.1683,1020.0,11111222 
LUMCON,ioos:station:LUMCON:103:1,2008-10-16T16:00:00Z,30.1889,-90.1683,1020.7,11111222 
LUMCON,ioos:station:LUMCON:103:1,2008-10-16T17:00:00Z,30.1889,-90.1683,1020.6,11111222 
LUMCON,ioos:station:LUMCON:103:1,2008-10-16T19:00:00Z,30.1889,-90.1683,1018.7,11111222 
LUMCON,ioos:station:LUMCON:103:1,2008-10-16T20:00:00Z,30.1889,-90.1683,1018.1,11111222 
LUMCON,ioos:station:LUMCON:103:1,2008-10-16T21:00:00Z,30.1889,-90.1683,1017.8,11111222 
LUMCON,ioos:station:LUMCON:103:1,2008-10-16T22:00:00Z,30.1889,-90.1683,1017.8,11111222 
LUMCON,ioos:station:LUMCON:103:1,2008-10-16T23:00:00Z,30.1889,-90.1683,1017.9,11111222 
LUMCON,ioos:station:LUMCON:103:1,2008-10-17T00:00:00Z,30.1889,-90.1683,1018.2,11111222 
LUMCON,ioos:station:LUMCON:103:1,2008-10-17T01:00:00Z,30.1889,-90.1683,1018.7,11111222 
LUMCON,ioos:station:LUMCON:103:1,2008-10-17T03:00:00Z,30.1889,-90.1683,1019.4,11111222 
LUMCON,ioos:station:LUMCON:103:1,2008-10-17T04:00:00Z,30.1889,-90.1683,1019.4,11111222 
LUMCON,ioos:station:LUMCON:103:1,2008-10-17T05:00:00Z,30.1889,-90.1683,1018.9,11111222 
LUMCON,ioos:station:LUMCON:103:1,2008-10-17T06:00:00Z,30.1889,-90.1683,1018.8,11111222 
LUMCON,ioos:station:LUMCON:103:1,2008-10-17T07:00:00Z,30.1889,-90.1683,1018.7,11111222 
LUMCON,ioos:station:LUMCON:103:1,2008-10-17T09:00:00Z,30.1889,-90.1683,1018.0,11111222 
LUMCON,ioos:station:LUMCON:103:1,2008-10-17T11:00:00Z,30.1889,-90.1683,1018.3,11111222 
LUMCON,ioos:station:LUMCON:103:1,2008-10-17T13:00:00Z,30.1889,-90.1683,1018.9,11111222 
LUMCON,ioos:station:LUMCON:103:1,2008-10-17T14:00:00Z,30.1889,-90.1683,1019.4,11111222 
LUMCON,ioos:station:LUMCON:103:1,2008-10-17T18:00:00Z,30.1889,-90.1683,1018.7,11111222 
LUMCON,ioos:station:LUMCON:103:1,2008-10-17T19:00:00Z,30.1889,-90.1683,1017.8,11111222 
LUMCON,ioos:station:LUMCON:103:1,2008-10-17T20:00:00Z,30.1889,-90.1683,1017.3,11111222 
LUMCON,ioos:station:LUMCON:103:1,2008-10-17T22:00:00Z,30.1889,-90.1683,1017.1,11111222 
LUMCON,ioos:station:LUMCON:103:1,2008-10-18T01:00:00Z,30.1889,-90.1683,1018.0,11111222 
LUMCON,ioos:station:LUMCON:103:1,2008-10-18T04:00:00Z,30.1889,-90.1683,1019.1,11111222 
LUMCON,ioos:station:LUMCON:103:1,2008-10-18T05:00:00Z,30.1889,-90.1683,1019.0,11111222 
LUMCON,ioos:station:LUMCON:103:1,2008-10-18T08:00:00Z,30.1889,-90.1683,1018.4,11111222 
LUMCON,ioos:station:LUMCON:103:1,2008-10-18T11:00:00Z,30.1889,-90.1683,1019.0,11111222 
LUMCON,ioos:station:LUMCON:103:1,2008-10-18T12:00:00Z,30.1889,-90.1683,1019.6,11111222 
LUMCON,ioos:station:LUMCON:103:1,2008-10-18T13:00:00Z,30.1889,-90.1683,1020.4,11111222 
LUMCON,ioos:station:LUMCON:103:1,2008-10-18T14:00:00Z,30.1889,-90.1683,1020.9,11111222 
LUMCON,ioos:station:LUMCON:103:1,2008-10-18T15:00:00Z,30.1889,-90.1683,1021.3,11111222 
LUMCON,ioos:station:LUMCON:103:1,2008-10-18T16:00:00Z,30.1889,-90.1683,1021.3,11111222 
LUMCON,ioos:station:LUMCON:103:1,2008-10-18T17:00:00Z,30.1889,-90.1683,1020.9,11111222 
LUMCON,ioos:station:LUMCON:103:1,2008-10-18T18:00:00Z,30.1889,-90.1683,1020.1,11111222 
LUMCON,ioos:station:LUMCON:103:1,2008-10-18T19:00:00Z,30.1889,-90.1683,1019.3,11111222 
LUMCON,ioos:station:LUMCON:103:1,2008-10-18T20:00:00Z,30.1889,-90.1683,1018.8,11111222 
LUMCON,ioos:station:LUMCON:103:1,2008-10-18T21:00:00Z,30.1889,-90.1683,1018.7,11111222 
LUMCON,ioos:station:LUMCON:103:1,2008-10-18T22:00:00Z,30.1889,-90.1683,1018.7,11111222 
LUMCON,ioos:station:LUMCON:103:1,2008-10-18T23:00:00Z,30.1889,-90.1683,1019.0,11111222 
LUMCON,ioos:station:LUMCON:103:1,2008-10-19T00:00:00Z,30.1889,-90.1683,1019.7,11111222 
LUMCON,ioos:station:LUMCON:103:1,2008-10-19T01:00:00Z,30.1889,-90.1683,1020.3,11111222 
LUMCON,ioos:station:LUMCON:103:1,2008-10-19T02:00:00Z,30.1889,-90.1683,1020.7,11111222 
LUMCON,ioos:station:LUMCON:103:1,2008-10-19T03:00:00Z,30.1889,-90.1683,1021.2,11111222 
LUMCON,ioos:station:LUMCON:103:1,2008-10-19T04:00:00Z,30.1889,-90.1683,1021.5,11111222 
LUMCON,ioos:station:LUMCON:103:1,2008-10-19T05:00:00Z,30.1889,-90.1683,1021.5,11111222 
LUMCON,ioos:station:LUMCON:103:1,2008-10-19T06:00:00Z,30.1889,-90.1683,1021.2,11111222 
LUMCON,ioos:station:LUMCON:103:1,2008-10-19T07:00:00Z,30.1889,-90.1683,1021.1,11111222 
LUMCON,ioos:station:LUMCON:103:1,2008-10-19T08:00:00Z,30.1889,-90.1683,1020.8,11111222 
LUMCON,ioos:station:LUMCON:103:1,2008-10-19T09:00:00Z,30.1889,-90.1683,1020.5,11111222 
LUMCON,ioos:station:LUMCON:103:1,2008-10-19T10:00:00Z,30.1889,-90.1683,1020.9,11111222 
LUMCON,ioos:station:LUMCON:103:1,2008-10-19T11:00:00Z,30.1889,-90.1683,1021.5,11111222 
LUMCON,ioos:station:LUMCON:103:1,2008-10-19T12:00:00Z,30.1889,-90.1683,1021.7,11111222 
LUMCON,ioos:station:LUMCON:103:1,2008-10-19T13:00:00Z,30.1889,-90.1683,1022.6,11111222 
LUMCON,ioos:station:LUMCON:103:1,2008-10-19T14:00:00Z,30.1889,-90.1683,1023.1,11111222 
LUMCON,ioos:station:LUMCON:103:1,2008-10-19T15:00:00Z,30.1889,-90.1683,1023.4,11111222 
LUMCON,ioos:station:LUMCON:103:1,2008-10-19T16:00:00Z,30.1889,-90.1683,1023.6,11111222 
LUMCON,ioos:station:LUMCON:103:1,2008-10-19T17:00:00Z,30.1889,-90.1683,1023.6,11111222 
LUMCON,ioos:station:LUMCON:103:1,2008-10-19T18:00:00Z,30.1889,-90.1683,1022.9,11111222 
LUMCON,ioos:station:LUMCON:103:1,2008-10-19T19:00:00Z,30.1889,-90.1683,1022.0,11111222 
LUMCON,ioos:station:LUMCON:103:1,2008-10-19T20:00:00Z,30.1889,-90.1683,1021.5,11111222 
LUMCON,ioos:station:LUMCON:103:1,2008-10-19T21:00:00Z,30.1889,-90.1683,1021.3,11111222 
LUMCON,ioos:station:LUMCON:103:1,2008-10-19T22:00:00Z,30.1889,-90.1683,1021.1,11111222 
LUMCON,ioos:station:LUMCON:103:1,2008-10-19T23:00:00Z,30.1889,-90.1683,1021.1,11111222 
LUMCON,ioos:station:LUMCON:103:1,2008-10-20T00:00:00Z,30.1889,-90.1683,1021.2,11111222 
LUMCON,ioos:station:LUMCON:103:1,2008-10-20T01:00:00Z,30.1889,-90.1683,1021.8,11111222 
LUMCON,ioos:station:LUMCON:103:1,2008-10-20T02:00:00Z,30.1889,-90.1683,1022.3,11111222 
LUMCON,ioos:station:LUMCON:103:1,2008-10-20T03:00:00Z,30.1889,-90.1683,1022.7,11111222 
LUMCON,ioos:station:LUMCON:103:1,2008-10-20T04:00:00Z,30.1889,-90.1683,1022.8,11111222 
LUMCON,ioos:station:LUMCON:103:1,2008-10-20T05:00:00Z,30.1889,-90.1683,1022.5,11111222 
LUMCON,ioos:station:LUMCON:103:1,2008-10-20T06:00:00Z,30.1889,-90.1683,1022.3,11111222 
LUMCON,ioos:station:LUMCON:103:1,2008-10-20T07:00:00Z,30.1889,-90.1683,1022.5,11111222 
LUMCON,ioos:station:LUMCON:103:1,2008-10-20T08:00:00Z,30.1889,-90.1683,1022.4,11111222 
LUMCON,ioos:station:LUMCON:103:1,2008-10-20T09:00:00Z,30.1889,-90.1683,1022.1,11111222 
LUMCON,ioos:station:LUMCON:103:1,2008-10-20T10:00:00Z,30.1889,-90.1683,1022.4,11111222 
LUMCON,ioos:station:LUMCON:103:1,2008-10-20T11:00:00Z,30.1889,-90.1683,1022.7,11111222 
LUMCON,ioos:station:LUMCON:103:1,2008-10-20T12:00:00Z,30.1889,-90.1683,1023.1,11111222 
LUMCON,ioos:station:LUMCON:103:1,2008-10-20T13:00:00Z,30.1889,-90.1683,1023.6,11111222 
LUMCON,ioos:station:LUMCON:103:1,2008-10-20T15:00:00Z,30.1889,-90.1683,1024.3,11111222 
LUMCON,ioos:station:LUMCON:103:1,2008-10-20T16:00:00Z,30.1889,-90.1683,1024.3,11111222 
LUMCON,ioos:station:LUMCON:103:1,2008-10-20T17:00:00Z,30.1889,-90.1683,1024.1,11111222 
LUMCON,ioos:station:LUMCON:103:1,2008-10-20T18:00:00Z,30.1889,-90.1683,1023.4,11111222 
LUMCON,ioos:station:LUMCON:103:1,2008-10-20T19:00:00Z,30.1889,-90.1683,1022.5,11111222 
LUMCON,ioos:station:LUMCON:103:1,2008-10-20T20:00:00Z,30.1889,-90.1683,1021.9,11111222 
LUMCON,ioos:station:LUMCON:103:1,2008-10-20T21:00:00Z,30.1889,-90.1683,1021.7,11111222 
LUMCON,ioos:station:LUMCON:103:1,2008-10-20T22:00:00Z,30.1889,-90.1683,1021.4,11111222 
LUMCON,ioos:station:LUMCON:103:1,2008-10-20T23:00:00Z,30.1889,-90.1683,1021.4,11111222 
LUMCON,ioos:station:LUMCON:103:1,2008-10-21T00:00:00Z,30.1889,-90.1683,1021.4,11111222 
LUMCON,ioos:station:LUMCON:103:1,2008-10-21T01:00:00Z,30.1889,-90.1683,1021.6,11111222 
LUMCON,ioos:station:LUMCON:103:1,2008-10-21T02:00:00Z,30.1889,-90.1683,1022.0,11111222 
LUMCON,ioos:station:LUMCON:103:1,2008-10-21T03:00:00Z,30.1889,-90.1683,1022.0,11111222 
LUMCON,ioos:station:LUMCON:103:1,2008-10-21T04:00:00Z,30.1889,-90.1683,1022.3,11111222 
LUMCON,ioos:station:LUMCON:103:1,2008-10-21T05:00:00Z,30.1889,-90.1683,1022.1,11111222 
LUMCON,ioos:station:LUMCON:103:1,2008-10-21T06:00:00Z,30.1889,-90.1683,1021.7,11111222 
LUMCON,ioos:station:LUMCON:103:1,2008-10-21T07:00:00Z,30.1889,-90.1683,1021.6,11111222 
LUMCON,ioos:station:LUMCON:103:1,2008-10-21T08:00:00Z,30.1889,-90.1683,1021.3,11111222 
LUMCON,ioos:station:LUMCON:103:1,2008-10-21T09:00:00Z,30.1889,-90.1683,1021.0,11111222 
LUMCON,ioos:station:LUMCON:103:1,2008-10-21T10:00:00Z,30.1889,-90.1683,1021.0,11111222 
LUMCON,ioos:station:LUMCON:103:1,2008-10-21T11:00:00Z,30.1889,-90.1683,1021.4,11111222 
LUMCON,ioos:station:LUMCON:103:1,2008-10-21T12:00:00Z,30.1889,-90.1683,1021.8,11111222 
LUMCON,ioos:station:LUMCON:103:1,2008-10-21T13:00:00Z,30.1889,-90.1683,1022.2,11111222 
LUMCON,ioos:station:LUMCON:103:1,2008-10-21T14:00:00Z,30.1889,-90.1683,1022.9,11111222 
LUMCON,ioos:station:LUMCON:103:1,2008-10-21T15:00:00Z,30.1889,-90.1683,1023.1,11111222 
LUMCON,ioos:station:LUMCON:103:1,2008-10-21T16:00:00Z,30.1889,-90.1683,1023.0,11111222 
LUMCON,ioos:station:LUMCON:103:1,2008-10-21T17:00:00Z,30.1889,-90.1683,1022.6,11111222 
LUMCON,ioos:station:LUMCON:103:1,2008-10-21T18:00:00Z,30.1889,-90.1683,1021.5,11111222 
LUMCON,ioos:station:LUMCON:103:1,2008-10-21T19:00:00Z,30.1889,-90.1683,1020.5,11111222 
LUMCON,ioos:station:LUMCON:103:1,2008-10-21T20:00:00Z,30.1889,-90.1683,1019.7,11111222 
LUMCON,ioos:station:LUMCON:103:1,2008-10-21T21:00:00Z,30.1889,-90.1683,1019.3,11111222 
LUMCON,ioos:station:LUMCON:103:1,2008-10-21T22:00:00Z,30.1889,-90.1683,1018.8,11111222 